Regional Weather Roundup
Issued by NWS

Home | Current Version | Previous Version | Graphics & Text | Print | Product List | Glossary On
Versions: 1 2 3 4 5 6 7 8 9 10 11 12 13 14 15 16 17 18 19 20 21 22 23 24 25 26 27 28
000
ASUS45 KTFX 220210
RWRMT
MONTANA REGIONAL WEATHER ROUNDUP
NATIONAL WEATHER SERVICE GREAT FALLS MT
800 PM MDT WED JUN 21 2017

NOTE: "FAIR" INDICATES FEW OR NO CLOUDS BELOW 12000 FEET WITH NO
SIGNIFICANT WEATHER AND/OR OBSTRUCTIONS TO VISIBILITY.

MTZ001>007-043-220300-
WEST OF THE DIVIDE

CITY           SKY/WX    TMP DP  RH WIND       PRES   REMARKS
KALISPELL      PTSUNNY   71  32  23 SW13      29.95R
MISSOULA       SUNNY     73  27  18 W16       29.99R
BUTTE          SUNNY     72  24  16 NW14G26   30.01R
MULLAN PASS    SUNNY     54  23  30 VRB7      30.14R
ANACONDA         N/A     70  21  16 W17G23    30.00R
DEER LODGE       N/A     68  34  28 NW15G23   30.01R
EUREKA           N/A     70  28  21 MISG      29.96R
HAMILTON         N/A     73  32  21 W6        30.01R
LIBBY            N/A     70  30  23 CALM      29.96R
$$

MTZ008-052>055-220300-
SOUTHWEST MONTANA

CITY           SKY/WX    TMP DP  RH WIND       PRES   REMARKS
BOZEMAN        SUNNY     75  36  24 NW15      29.89R
DILLON         SUNNY     70  39  32 W13       29.96R
W YELLOWSTONE  CLOUDY    73  48  40 SW12      30.03R
ENNIS          SUNNY     77  34  20 NW9       30.01S
THREE FORKS      N/A     79  27  15 W14       29.91R
$$

MTZ009-010-012-014-046-048-049-054-220300-
EAST SLOPES AND CENTRAL MONTANA

CITY           SKY/WX    TMP DP  RH WIND       PRES   REMARKS
CUT BANK       PTSUNNY   65  31  28 NW28G37   29.90R
GREAT FALLS    SUNNY     73  24  16 NW21G26   29.87R
MALMSTROM AFB  SUNNY     74  21  14 W22G30    29.87R
HELENA         SUNNY     76  31  19 NW16G25   29.91R
CHOTEAU          N/A     70  23  17 NW17      29.92R
$$

MTZ011-013-016-021-045-047-050-051-220300-
NORTH CENTRAL MONTANA

CITY           SKY/WX    TMP DP  RH WIND       PRES   REMARKS
HAVRE          MOSUNNY   64  41  42 E9        29.82R
LEWISTOWN      SUNNY     72  29  20 NW21G29   29.86R
N BAR RANCH      N/A     72  27  18 NW22      29.90R
CHINOOK          N/A     63  41  45 CALM      29.81R
FORT BENTON      N/A     75  25  15 MISG      29.83R
$$

MTZ017>020-022>027-061-062-220300-
NORTHEAST MONTANA

CITY           SKY/WX    TMP DP  RH WIND       PRES   REMARKS
GLASGOW        LGT RAIN  70  36  28 NW25G35   29.78R
JORDAN           N/A     77  34  21 E10       29.75S
SIDNEY         CLEAR     75  37  25 NE8       29.75F
WOLF POINT     CLEAR     76  36  23 CALM      29.73F
MALTA          MOSUNNY   59  45  58 N23G39    29.80R
PLENTYWOOD       N/A     68  36  30 N7        29.75F
POPLAR           N/A     72  37  28 E7        29.73F
$$

MTZ028>42-056>058-220300-
SOUTHCENTRAL AND SOUTHEAST MONTANA

CITY           SKY/WX    TMP DP  RH WIND       PRES   REMARKS
BAKER          CLEAR     75  38  26 NE12      29.80S
BILLINGS       PTCLDY    82  46  28 NE3       29.79S
LIVINGSTON     SUNNY     78  37  22 W16       29.87R
MILES CITY     PTCLDY    77  36  22 NE20      29.75R
BIG TIMBER     SUNNY     77  34  20 NW18G25   29.87R
FORSYTH          N/A     81  45  28 CALM      29.73R
$$

REGIONAL REPORTS...DAKOTAS

CITY           SKY/WX    TMP DP  RH WIND       PRES   REMARKS
WILLISTON      CLEAR     72  36  26 N7        29.76F
MINOT          CLEAR     70  36  28 NW10      29.75R
DICKINSON      CLEAR     72  34  24 N7        29.77F
BEACH            N/A     66  41  39 NE6       29.83R
CROSBY           N/A     68  37  32 NW8       29.75F
TIOGA            N/A     68  37  32 N10       29.79F
WATFORD CITY     N/A     68  41  37 N8        29.77S
BISMARCK       CLEAR     76  41  28 N9        29.76R
GRAND FORKS    CLEAR     74  56  53 NW12      29.62R
FARGO          CLEAR     79  55  43 NW20      29.63R
BUFFALO SD       N/A     77  40  26 NE10      29.73S
RAPID CITY     CLEAR     82  49  31 N13       29.75F
$$

REGIONAL REPORTS...WYOMING/IDAHO/WASHINGTON

CITY           SKY/WX    TMP DP  RH WIND       PRES   REMARKS
GILLETTE       CLEAR     79  51  37 NE9       29.80S
SHERIDAN       CLEAR     77  57  50 NW6       29.82R
BUFFALO WY     CLEAR     74  53  48 N7        29.88R
CODY           PTCLDY    76  46  34 N14       29.89R
YELLOWSTONE LA   N/A     67  40  37 VRB7      30.13S
IDAHO FALLS    SUNNY     78  46  32 S20G26    29.91S
SALMON         SUNNY    N/A N/A N/A MISG        N/A
BOISE          MOSUNNY   83  36  18 NW15      29.95S
SPOKANE        MOSUNNY   77  23  13 W18       30.02F
$$

REGIONAL REPORTS...ALBERTA

CITY           SKY/WX    TMP DP  RH WIND       PRES   REMARKS
EDMONTON       PTSUNNY   57  34  41 NW17G28   29.83R
CALGARY        PTSUNNY   57  30  35 N12G20    29.92R
MEDICINE HAT   CLOUDY    55  45  67 N17G23    29.87R
WATERTON GATE    N/A     61  30  31 W18G30      N/A
CARDSTON         N/A     64  28  25 W14G25      N/A
MILK RIVER       N/A     66  36  32 NW17G26     N/A
$$

REGIONAL REPORTS...SASKATCHEWAN

CITY           SKY/WX    TMP DP  RH WIND       PRES   REMARKS
SWIFT CURRENT  SUNNY     63  37  39 W9        29.78S
REGINA         MOCLDY    66  34  30 W22G32    29.72S
SASKATOON      PTSUNNY   64  34  32 W28G37    29.66R
CYPRESS HILLS    N/A     46  41  81 N15G26      N/A
VAL MARIE        N/A     52  46  82 E6          N/A
ROCKGLEN         N/A     61  39  44 NW7         N/A
ASSINIBOIA       N/A     59  36  41 NW20G30     N/A
$$




USA.gov is the U.S. government's official web portal to all federal, state and local government web resources and services.